Location: Newark
(35.9667°S, 26.6167°E)
Time: 03:13:44
(UTC+00:00)

N. Korean satellite - Visible Passes

Search period start: 19 October 2019 00:00
Search period end: 29 October 2019 00:00
Orbit: 455 x 508 km, 97.2° (Epoch: 18 October)

Date Brightness Start Highest point End Pass type
(mag) Time Alt. Az. Time Alt. Az. Time Alt. Az.
19 Oct 10.2 02:29:04 10° ENE 02:31:25 16° ESE 02:33:47 10° SSE visible
19 Oct 10.1 17:04:36 10° SSW 17:06:44 15° WSW 17:08:50 10° WNW visible
22 Oct 9.4 02:45:38 10° NE 02:48:47 26° ESE 02:51:56 10° SSE visible
23 Oct 10.4 02:21:56 10° E 02:23:42 13° ESE 02:25:28 10° SE visible
26 Oct 9.8 02:38:10 10° ENE 02:41:00 21° ESE 02:43:51 10° SSE visible
26 Oct 10.7 17:15:11 10° SW 17:16:13 11° WSW 17:17:16 10° W visible
27 Oct 10.8 02:15:19 10° ESE 02:15:56 10° ESE 02:16:33 10° ESE visible
